FW5931 Weather Reports


time (UTC)temp
C
wind
direction
speed
KPH
gust
KPH
rain 1hr
cm
rain 24hr
cm
rain mn
cm
humidity
%
barometer
mb
20260504042020 7 234 0.0 0.0 0.00 0.00 0.00 87 1018.1
20260504041948 7 234 0.0 0.0 0.00 0.00 0.00 86 1018.0
20260504041939 7 234 0.0 0.0 0.00 0.00 0.00 87 1018.0
20260504041720 7 234 0.0 0.0 0.00 0.00 0.00 86 1018.1
20260504041619 7 234 0.0 0.0 0.00 0.00 0.00 86 1018.1
20260504041520 7 234 0.0 0.0 0.00 0.00 0.00 86 1018.1
20260504041411 7 234 0.0 0.0 0.00 0.00 0.00 86 1018.0
20260504041354 7 234 0.0 0.0 0.00 0.00 0.00 86 1018.3
20260504041348 7 234 0.0 0.0 0.00 0.00 0.00 86 1018.1
20260504041334 7 234 0.0 0.0 0.00 0.00 0.00 86 1018.1
20260504041211 7 234 0.0 0.0 0.00 0.00 0.00 86 1018.1
20260504041204 7 234 0.0 0.0 0.00 0.00 0.00 85 1018.2
20260504041146 7 234 0.0 0.0 0.00 0.00 0.00 86 1018.1
20260504041025 7 234 0.0 0.0 0.00 0.00 0.00 86 1018.1
20260504040858 7 234 0.0 0.0 0.00 0.00 0.00 86 1018.2
20260504040842 7 234 0.0 0.0 0.00 0.00 0.00 86 1018.1
20260504040725 7 234 0.0 0.0 0.00 0.00 0.00 86 1018.2
20260504040713 7 234 0.0 0.0 0.00 0.00 0.00 86 1018.1
20260504040654 7 234 0.0 0.0 0.00 0.00 0.00 86 1018.2
20260504040532 7 234 0.0 0.0 0.00 0.00 0.00 86 1018.2
20260504040512 7 234 0.0 0.0 0.00 0.00 0.00 86 1018.2
20260504035847 8 234 0.0 0.0 0.00 0.00 0.00 86 1018.2
20260504035746 8 234 0.0 0.0 0.00 0.00 0.00 85 1018.2
20260504035644 8 234 0.0 0.0 0.00 0.00 0.00 85 1018.3
20260504035546 8 234 0.0 0.0 0.00 0.00 0.00 85 1018.3
20260504035445 8 235 0.0 0.0 0.00 0.00 0.00 85 1018.3
20260504035341 8 235 0.0 0.0 0.00 0.00 0.00 85 1018.3
20260504035240 8 236 0.0 0.0 0.00 0.00 0.00 85 1018.3
20260504035140 8 238 0.0 0.0 0.00 0.00 0.00 85 1018.3
20260504035041 8 243 0.0 0.0 0.00 0.00 0.00 85 1018.3
20260504035034 8 246 0.0 0.0 0.00 0.00 0.00 84 1018.3
20260504035017 8 246 0.0 0.0 0.00 0.00 0.00 85 1018.4
20260504034856 8 246 0.0 0.0 0.00 0.00 0.00 84 1018.3
20260504034837 8 246 0.0 0.0 0.00 0.00 0.00 84 1018.4
20260504034726 8 246 0.0 0.0 0.00 0.00 0.00 84 1018.3
20260504034709 8 246 0.0 0.0 0.00 0.00 0.00 84 1018.3
20260504034330 8 246 0.0 0.0 0.00 0.00 0.00 84 1018.3
20260504034256 8 246 0.0 0.0 0.00 0.00 0.00 84 1018.4
20260504034247 8 246 0.0 0.0 0.00 0.00 0.00 84 1018.3
20260504034026 8 246 0.0 0.0 0.00 0.00 0.00 83 1018.4
20260504033925 8 246 0.0 0.0 0.00 0.00 0.00 83 1018.4
20260504033825 8 246 0.0 0.0 0.00 0.00 0.00 83 1018.4
20260504033753 8 246 0.0 0.0 0.00 0.00 0.00 83 1018.3
20260504033744 8 246 0.0 0.0 0.00 0.00 0.00 83 1018.3
20260504033554 8 246 0.0 0.0 0.00 0.00 0.00 82 1018.3
20260504033545 8 246 0.0 0.0 0.00 0.00 0.00 82 1018.3
20260504033325 8 246 0.0 0.0 0.00 0.00 0.00 82 1018.3
20260504033225 8 246 0.0 0.0 0.00 0.00 0.00 82 1018.3
20260504033123 8 246 0.0 0.0 0.00 0.00 0.00 82 1018.3
20260504033024 8 246 0.0 0.0 0.00 0.00 0.00 82 1018.4
20260504032955 8 246 0.0 0.0 0.00 0.00 0.00 83 1018.4
20260504032945 8 247 0.0 0.0 0.00 0.00 0.00 83 1018.4
20260504032724 8 246 0.0 0.0 0.00 0.00 0.00 83 1018.3
20260504032620 8 246 0.0 0.0 0.00 0.00 0.00 83 1018.4
20260504032521 8 247 0.0 0.0 0.00 0.00 0.00 83 1018.4
20260504032514 8 246 0.0 0.0 0.00 0.00 0.00 83 1018.4
20260504032509 8 247 0.0 0.0 0.00 0.00 0.00 83 1018.4
20260504032451 8 247 0.0 0.0 0.00 0.00 0.00 83 1018.4
20260504032317 8 247 0.0 0.0 0.00 0.00 0.00 83 1018.4
20260504032204 8 246 0.0 0.0 0.00 0.00 0.00 83 1018.4
20260504032148 8 246 0.0 0.0 0.00 0.00 0.00 83 1018.4
20260504031811 8 247 0.0 0.0 0.00 0.00 0.00 83 1018.5
20260504031712 8 246 0.0 0.0 0.00 0.00 0.00 83 1018.5
20260504031607 8 245 0.0 1.6 0.00 0.00 0.00 83 1018.5
20260504031506 8 246 0.0 1.6 0.00 0.00 0.00 83 1018.5
20260504031404 8 246 0.0 1.6 0.00 0.00 0.00 83 1018.5
20260504031305 8 246 0.0 3.2 0.00 0.00 0.00 83 1018.5
20260504031201 8 246 0.0 3.2 0.00 0.00 0.00 83 1018.5
20260504031102 8 246 0.0 3.2 0.00 0.00 0.00 83 1018.5
20260504031027 8 246 0.0 3.2 0.00 0.00 0.00 83 1018.5
20260504031018 8 246 0.0 3.2 0.00 0.00 0.00 83 1018.5
20260504030759 8 247 0.0 3.2 0.00 0.00 0.00 83 1018.6
20260504030658 9 246 0.0 3.2 0.00 0.00 0.00 83 1018.5
20260504030600 9 246 0.0 3.2 0.00 0.00 0.00 82 1018.6
20260504030458 9 246 0.0 3.2 0.00 0.00 0.00 82 1018.6
20260504030357 9 246 0.0 3.2 0.00 0.00 0.00 82 1018.6
20260504030258 9 245 0.0 1.6 0.00 0.00 0.00 82 1018.6
20260504030157 9 246 0.0 1.6 0.00 0.00 0.00 81 1018.6
20260504030058 9 246 0.0 1.6 0.00 0.00 0.00 81 1018.5
20260504030028 9 246 0.0 1.6 0.00 0.00 0.00 81 1018.5
20260504030019 9 246 0.0 1.6 0.00 0.00 0.00 81 1018.5
20260504025752 9 246 0.0 1.6 0.00 0.00 0.00 80 1018.5
20260504025654 9 247 0.0 1.6 0.00 0.00 0.00 80 1018.5
20260504025619 9 246 0.0 1.6 0.00 0.00 0.00 80 1018.4
20260504025611 9 246 0.0 1.6 0.00 0.00 0.00 80 1018.4
20260504025348 9 246 0.0 1.6 0.00 0.00 0.00 80 1018.5
20260504025315 10 247 0.0 1.6 0.00 0.00 0.00 80 1018.4
20260504025306 9 246 0.0 1.6 0.00 0.00 0.00 80 1018.4
20260504025045 10 246 0.0 1.6 0.00 0.00 0.00 80 1018.4
20260504025012 10 246 0.0 3.2 0.00 0.00 0.00 79 1018.4
20260504025004 10 246 0.0 3.2 0.00 0.00 0.00 79 1018.5
20260504024741 10 246 1.6 3.2 0.00 0.00 0.00 78 1018.4
20260504024639 10 246 1.6 3.2 0.00 0.00 0.00 78 1018.4
20260504024540 10 246 1.6 3.2 0.00 0.00 0.00 78 1018.3
20260504024438 10 246 1.6 3.2 0.00 0.00 0.00 78 1018.3
20260504024336 10 246 1.6 3.2 0.00 0.00 0.00 77 1018.4
20260504024234 10 246 1.6 3.2 0.00 0.00 0.00 77 1018.3
20260504024135 10 246 1.6 3.2 0.00 0.00 0.00 76 1018.2
20260504024036 10 246 1.6 3.2 0.00 0.00 0.00 76 1018.3
20260504023935 10 246 1.6 3.2 0.00 0.00 0.00 76 1018.3
20260504023835 10 246 1.6 3.2 0.00 0.00 0.00 77 1018.2
20260504023733 10 246 1.6 3.2 0.00 0.00 0.00 76 1018.2
20260504023633 10 246 1.6 4.8 0.00 0.00 0.00 76 1018.2
20260504023532 10 246 1.6 4.8 0.00 0.00 0.00 76 1018.1
20260504023452 10 245 1.6 4.8 0.00 0.00 0.00 76 1018.1
20260504023444 10 246 1.6 4.8 0.00 0.00 0.00 76 1018.1
20260504023223 10 246 1.6 4.8 0.00 0.00 0.00 76 1018.1
20260504023123 10 246 1.6 4.8 0.00 0.00 0.00 76 1018.1
20260504023024 10 246 1.6 4.8 0.00 0.00 0.00 76 1018.1
20260504022953 10 246 1.6 4.8 0.00 0.00 0.00 76 1018.1
20260504022943 10 246 1.6 4.8 0.00 0.00 0.00 76 1018.0
20260504022718 10 246 1.6 4.8 0.00 0.00 0.00 76 1018.0
20260504022617 10 249 1.6 3.2 0.00 0.00 0.00 76 1017.9
20260504022516 10 249 1.6 3.2 0.00 0.00 0.00 76 1018.0
20260504022413 10 248 0.0 3.2 0.00 0.00 0.00 77 1017.9
20260504022312 10 249 0.0 3.2 0.00 0.00 0.00 77 1017.9
20260504022249 10 250 0.0 3.2 0.00 0.00 0.00 75 1017.8
20260504022245 10 250 0.0 1.6 0.00 0.00 0.00 77 1017.9
20260504022231 10 250 0.0 3.2 0.00 0.00 0.00 77 1017.9
20260504022215 10 250 0.0 3.2 0.00 0.00 0.00 77 1017.9
20260504021941 10 250 0.0 3.2 0.00 0.00 0.00 78 1017.9
20260504021931 10 250 0.0 1.6 0.00 0.00 0.00 77 1017.8
20260504021805 10 250 0.0 3.2 0.00 0.00 0.00 75 1017.7
20260504021800 10 250 0.0 3.2 0.00 0.00 0.00 75 1017.7
20260504021743 10 250 0.0 3.2 0.00 0.00 0.00 77 1017.8
20260504021623 10 250 0.0 3.2 0.00 0.00 0.00 76 1017.8
20260504021604 10 250 0.0 3.2 0.00 0.00 0.00 76 1017.8
20260504021439 10 250 0.0 3.2 0.00 0.00 0.00 75 1017.7
20260504021301 10 250 0.0 3.2 0.00 0.00 0.00 75 1017.8
20260504021021 10 250 0.0 3.2 0.00 0.00 0.00 75 1017.8
20260504020801 10 250 0.0 3.2 0.00 0.00 0.00 75 1017.8
20260504020701 10 250 0.0 1.6 0.00 0.00 0.00 76 1017.7
20260504020600 10 250 0.0 0.0 0.00 0.00 0.00 76 1017.8
20260504020458 10 250 0.0 0.0 0.00 0.00 0.00 76 1017.7
20260504020400 10 249 0.0 0.0 0.00 0.00 0.00 76 1017.7
20260504020258 10 250 0.0 0.0 0.00 0.00 0.00 76 1017.8
20260504020155 10 250 0.0 0.0 0.00 0.00 0.00 76 1017.8
20260504020054 10 250 0.0 0.0 0.00 0.00 0.00 76 1017.7
20260504015954 10 250 0.0 0.0 0.00 0.00 0.00 76 1017.7
20260504015854 10 250 0.0 0.0 0.00 0.00 0.00 76 1017.6
20260504015754 10 251 0.0 0.0 0.00 0.00 0.00 77 1017.6
20260504015653 10 252 0.0 0.0 0.00 0.00 0.00 77 1017.6
20260504015553 10 249 0.0 0.0 0.00 0.00 0.00 76 1017.7
20260504015451 10 249 0.0 0.0 0.00 0.00 0.00 76 1017.6
20260504015350 10 250 0.0 0.0 0.00 0.00 0.00 76 1017.7
20260504015250 10 249 0.0 0.0 0.00 0.00 0.00 76 1017.7
20260504015148 10 250 0.0 0.0 0.00 0.00 0.00 76 1017.7
20260504015115 10 250 0.0 0.0 0.00 0.00 0.00 77 1017.7
20260504015105 10 250 0.0 0.0 0.00 0.00 0.00 77 1017.7
20260504014845 10 249 0.0 0.0 0.00 0.00 0.00 77 1017.7
20260504014744 10 249 0.0 0.0 0.00 0.00 0.00 77 1017.6
20260504014642 10 250 0.0 0.0 0.00 0.00 0.00 77 1017.7
20260504014543 10 250 0.0 0.0 0.00 0.00 0.00 77 1017.7
20260504014443 10 249 0.0 1.6 0.00 0.00 0.00 77 1017.7
20260504014342 10 250 0.0 1.6 0.00 0.00 0.00 77 1017.7
20260504014241 10 250 0.0 1.6 0.00 0.00 0.00 77 1017.7
20260504014140 10 250 0.0 1.6 0.00 0.00 0.00 77 1017.7
20260504014040 10 250 1.6 1.6 0.00 0.00 0.00 77 1017.7
20260504013938 10 250 1.6 1.6 0.00 0.00 0.00 77 1017.8
20260504013836 10 250 1.6 1.6 0.00 0.00 0.00 77 1017.7
20260504013734 10 250 1.6 1.6 0.00 0.00 0.00 77 1017.7
20260504013635 11 250 1.6 1.6 0.00 0.00 0.00 77 1017.7
20260504013533 11 250 1.6 1.6 0.00 0.00 0.00 77 1017.7
20260504013431 11 250 1.6 1.6 0.00 0.00 0.00 77 1017.7
20260504013330 11 250 1.6 1.6 0.00 0.00 0.00 76 1017.7
20260504013230 11 250 1.6 3.2 0.00 0.00 0.00 76 1017.7
20260504013127 11 250 1.6 3.2 0.00 0.00 0.00 76 1017.7
20260504013028 11 250 1.6 3.2 0.00 0.00 0.00 76 1017.6
20260504013001 11 250 1.6 3.2 0.00 0.00 0.00 75 1017.7
20260504012953 11 250 1.6 3.2 0.00 0.00 0.00 75 1017.7
20260504012726 11 250 1.6 3.2 0.00 0.00 0.00 74 1017.6
20260504012627 11 250 1.6 3.2 0.00 0.00 0.00 74 1017.7
20260504012527 11 250 1.6 3.2 0.00 0.00 0.00 74 1017.6
20260504012427 11 250 0.0 3.2 0.00 0.00 0.00 73 1017.6
20260504012322 11 250 0.0 3.2 0.00 0.00 0.00 72 1017.6
20260504012224 11 250 0.0 3.2 0.00 0.00 0.00 72 1017.5
20260504012123 11 250 0.0 3.2 0.00 0.00 0.00 71 1017.6
20260504012024 11 250 0.0 3.2 0.00 0.00 0.00 70 1017.5
20260504011922 11 250 0.0 0.0 0.00 0.00 0.00 70 1017.6
20260504011824 11 250 0.0 0.0 0.00 0.00 0.00 70 1017.5
20260504011752 11 250 0.0 0.0 0.00 0.00 0.00 69 1017.5
20260504011743 11 250 0.0 0.0 0.00 0.00 0.00 69 1017.5
20260504011524 11 250 0.0 0.0 0.00 0.00 0.00 69 1017.5
20260504011454 12 250 0.0 0.0 0.00 0.00 0.00 69 1017.3
20260504011441 12 250 0.0 0.0 0.00 0.00 0.00 69 1017.5
20260504011251 12 249 0.0 0.0 0.00 0.00 0.00 69 1017.5
20260504011242 12 250 0.0 0.0 0.00 0.00 0.00 69 1017.5
20260504011018 12 250 0.0 0.0 0.00 0.00 0.00 69 1017.3
20260504010917 12 250 0.0 1.6 0.00 0.00 0.00 68 1017.5
20260504010818 12 250 0.0 1.6 0.00 0.00 0.00 68 1017.5
20260504010744 12 250 0.0 1.6 0.00 0.00 0.00 66 1017.6
20260504010738 12 250 0.0 1.6 0.00 0.00 0.00 69 1017.6
20260504010734 12 250 0.0 1.6 0.00 0.00 0.00 68 1017.6
20260504010723 12 250 0.0 1.6 0.00 0.00 0.00 68 1017.5
20260504010702 12 250 0.0 1.6 0.00 0.00 0.00 68 1017.6
20260504010646 12 250 0.0 1.6 0.00 0.00 0.00 69 1017.6
20260504010257 12 250 0.0 1.6 0.00 0.00 0.00 66 1017.6
20260504010242 12 250 0.0 1.6 0.00 0.00 0.00 67 1017.6
20260504005910 12 250 0.0 1.6 0.00 0.00 0.00 65 1017.6
20260504005904 13 250 0.0 0.0 0.00 0.00 0.00 65 1017.7
20260504005859 13 250 0.0 0.0 0.00 0.00 0.00 64 1017.5
20260504005842 12 250 0.0 1.6 0.00 0.00 0.00 65 1017.6
20260504005504 13 250 0.0 0.0 0.00 0.00 0.00 64 1017.6
20260504005404 13 251 0.0 0.0 0.00 0.00 0.00 63 1017.5
20260504005304 13 250 0.0 1.6 0.00 0.00 0.00 63 1017.6
20260504005201 13 250 0.0 1.6 0.00 0.00 0.00 63 1017.5
20260504005100 13 251 0.0 1.6 0.00 0.00 0.00 63 1017.6
20260504004959 13 250 0.0 1.6 0.00 0.00 0.00 63 1017.6
20260504004858 13 250 0.0 1.6 0.00 0.00 0.00 63 1017.6
20260504004757 13 249 0.0 1.6 0.00 0.00 0.00 63 1017.5
20260504004655 13 250 0.0 1.6 0.00 0.00 0.00 63 1017.6
20260504004551 13 250 0.0 1.6 0.00 0.00 0.00 63 1017.6
20260504004448 13 252 0.0 1.6 0.00 0.00 0.00 63 1017.6
20260504004350 13 250 0.0 1.6 0.00 0.00 0.00 63 1017.6
20260504004305 14 254 0.0 1.6 0.00 0.00 0.00 57 1017.7
20260504004259 14 253 0.0 3.2 0.00 0.00 0.00 57 1017.6
20260504004249 14 252 0.0 1.6 0.00 0.00 0.00 63 1017.6
20260504004242 15 254 0.0 3.2 0.00 0.00 0.00 57 1017.7
20260504004220 14 252 0.0 1.6 0.00 0.00 0.00 62 1017.6
20260504004058 14 253 0.0 1.6 0.00 0.00 0.00 61 1017.7
20260504004038 14 254 0.0 1.6 0.00 0.00 0.00 61 1017.7
20260504003913 14 254 0.0 1.6 0.00 0.00 0.00 60 1017.7
20260504003749 14 254 0.0 1.6 0.00 0.00 0.00 60 1017.7
20260504003733 14 254 0.0 1.6 0.00 0.00 0.00 59 1017.7
20260504003234 15 254 0.0 3.2 0.00 0.00 0.00 57 1017.7
20260504003133 15 255 0.0 3.2 0.00 0.00 0.00 56 1017.7
20260504003029 15 255 0.0 3.2 0.00 0.00 0.00 56 1017.7
20260504002927 15 254 0.0 3.2 0.00 0.00 0.00 55 1017.7
20260504002828 15 254 0.0 3.2 0.00 0.00 0.00 55 1017.7
20260504002726 15 255 0.0 3.2 0.00 0.00 0.00 55 1017.8
20260504002627 15 254 0.0 3.2 0.00 0.00 0.00 55 1017.7
20260504002520 15 256 0.0 3.2 0.00 0.00 0.00 55 1017.8
20260504002421 15 256 0.0 1.6 0.00 0.00 0.00 55 1017.8
20260504002350 15 257 0.0 1.6 0.00 0.00 0.00 55 1017.9
20260504002340 15 256 0.0 1.6 0.00 0.00 0.00 55 1017.8
20260504002117 15 0 0.0 3.2 0.00 0.00 0.00 54 1017.9
20260504002013 15 0 0.0 3.2 0.00 0.00 0.00 54 1017.9
20260504001911 15 0 0.0 3.2 0.00 0.00 0.00 54 1017.9
20260504001812 15 0 0.0 3.2 0.00 0.00 0.00 55 1018.0
20260504001711 15 0 0.0 3.2 0.00 0.00 0.00 54 1017.9
20260504001636 16 0 1.6 3.2 0.00 0.00 0.00 54 1017.9
20260504001627 16 243 1.6 3.2 0.00 0.00 0.00 54 1017.9
20260504001408 16 243 1.6 3.2 0.00 0.00 0.00 54 1018.0
20260504001306 16 0 1.6 3.2 0.00 0.00 0.00 55 1017.9
20260504001241 16 0 1.6 3.2 0.00 0.00 0.00 53 1018.0
20260504001229 16 242 1.6 3.2 0.00 0.00 0.00 55 1018.0
20260504001004 16 0 1.6 3.2 0.00 0.00 0.00 53 1018.0
20260504000905 16 0 1.6 4.8 0.00 0.00 0.00 53 1017.9
20260504000806 16 243 1.6 4.8 0.00 0.00 0.00 53 1018.0
20260504000705 16 243 1.6 4.8 0.00 0.00 0.00 54 1018.0
20260504000614 16 0 1.6 11.3 0.00 0.00 0.00 53 1018.0
20260504000603 16 243 1.6 4.8 0.00 0.00 0.00 54 1018.0
20260504000557 16 242 1.6 11.3 0.00 0.00 0.00 54 1018.0
20260504000540 16 243 1.6 11.3 0.00 0.00 0.00 53 1018.0
20260504000230 16 242 3.2 11.3 0.00 0.00 0.00 53 1018.0
20260504000219 16 0 1.6 11.3 0.00 0.00 0.00 54 1018.0
20260503235958 16 242 3.2 11.3 0.00 0.00 0.00 53 1018.0
20260503235858 16 240 3.2 11.3 0.00 0.00 0.00 53 1018.0
20260503235800 16 240 3.2 11.3 0.00 0.00 0.00 52 1018.0
20260503235657 16 240 3.2 11.3 0.00 0.00 0.00 51 1017.9
20260503235556 16 0 3.2 11.3 0.00 0.00 0.00 51 1018.0
20260503235456 16 239 3.2 9.7 0.00 0.00 0.00 53 1018.0
20260503235357 16 241 3.2 8.0 0.00 0.00 0.00 53 1017.9
20260503235255 16 240 3.2 8.0 0.00 0.00 0.00 51 1017.9
20260503235224 16 240 3.2 9.7 0.00 0.00 0.00 51 1017.9
20260503235216 16 241 3.2 8.0 0.00 0.00 0.00 50 1018.0
20260503235025 17 217 3.2 9.7 0.00 0.00 0.00 51 1017.9
20260503235014 17 249 3.2 9.7 0.00 0.00 0.00 51 1017.9
20260503234752 17 217 3.2 9.7 0.00 0.00 0.00 51 1017.9
20260503234652 17 0 3.2 9.7 0.00 0.00 0.00 49 1017.9
20260503234550 17 200 3.2 9.7 0.00 0.00 0.00 50 1017.7
20260503234452 17 172 3.2 9.7 0.00 0.00 0.00 49 1017.7
20260503234422 17 157 3.2 9.7 0.00 0.00 0.00 50 1017.6
20260503234412 17 175 3.2 9.7 0.00 0.00 0.00 49 1017.7
20260503234151 17 184 3.2 9.7 0.00 0.00 0.00 49 1017.7
20260503234051 17 157 3.2 8.0 0.00 0.00 0.00 49 1017.7
20260503233951 17 209 3.2 8.0 0.00 0.00 0.00 50 1017.7
20260503233851 17 186 3.2 8.0 0.00 0.00 0.00 50 1017.7
20260503233750 17 196 1.6 8.0 0.00 0.00 0.00 49 1017.8
20260503233651 17 173 1.6 8.0 0.00 0.00 0.00 49 1017.7
20260503233546 17 175 3.2 8.0 0.00 0.00 0.00 47 1017.7
20260503233448 17 174 3.2 8.0 0.00 0.00 0.00 47 1017.7
20260503233418 17 173 3.2 8.0 0.00 0.00 0.00 49 1017.6
20260503233407 17 177 3.2 8.0 0.00 0.00 0.00 50 1017.7
20260503233145 17 237 3.2 9.7 0.00 0.00 0.00 48 1017.7
20260503233038 17 237 3.2 11.3 0.00 0.00 0.00 47 1017.7
20260503232938 17 237 3.2 11.3 0.00 0.00 0.00 48 1017.7
20260503232838 17 240 4.8 12.9 0.00 0.00 0.00 47 1017.7
20260503232738 17 238 4.8 14.5 0.00 0.00 0.00 47 1017.7
20260503232639 17 238 4.8 14.5 0.00 0.00 0.00 47 1017.7
20260503232536 17 225 4.8 14.5 0.00 0.00 0.00 47 1017.7
20260503232435 17 229 4.8 14.5 0.00 0.00 0.00 46 1017.8
20260503232403 17 244 4.8 14.5 0.00 0.00 0.00 46 1017.8
20260503232354 17 262 4.8 14.5 0.00 0.00 0.00 46 1017.8
20260503232134 17 253 4.8 14.5 0.00 0.00 0.00 45 1017.8
20260503232034 17 248 4.8 14.5 0.00 0.00 0.00 45 1017.9
20260503232005 18 251 4.8 12.9 0.00 0.00 0.00 46 1017.9
20260503231956 18 251 4.8 14.5 0.00 0.00 0.00 46 1017.8
20260503231735 18 183 4.8 14.5 0.00 0.00 0.00 46 1018.0
20260503231633 18 233 4.8 17.7 0.00 0.00 0.00 47 1018.0
20260503231533 18 236 4.8 17.7 0.00 0.00 0.00 47 1018.0
20260503231430 18 253 4.8 17.7 0.00 0.00 0.00 47 1018.1
20260503231356 18 266 4.8 17.7 0.00 0.00 0.00 45 1018.0
20260503231348 18 265 4.8 17.7 0.00 0.00 0.00 45 1018.0
20260503231128 18 261 4.8 17.7 0.00 0.00 0.00 46 1018.0
20260503231028 18 240 4.8 17.7 0.00 0.00 0.00 45 1018.0
20260503230929 18 245 4.8 17.7 0.00 0.00 0.00 47 1018.0
20260503230824 18 240 4.8 17.7 0.00 0.00 0.00 47 1018.2
20260503230748 18 245 4.8 14.5 0.00 0.00 0.00 46 1018.1
20260503230741 18 284 4.8 14.5 0.00 0.00 0.00 48 1018.1
20260503230520 18 207 4.8 14.5 0.00 0.00 0.00 46 1018.1
20260503230421 18 210 4.8 14.5 0.00 0.00 0.00 47 1018.2
20260503230320 18 259 6.4 14.5 0.00 0.00 0.00 46 1018.2
20260503230250 18 275 6.4 16.1 0.00 0.00 0.00 48 1018.2
20260503230240 18 254 6.4 16.1 0.00 0.00 0.00 46 1018.2
20260503230020 18 223 6.4 16.1 0.00 0.00 0.00 50 1018.3
20260503225921 18 259 6.4 16.1 0.00 0.00 0.00 48 1018.3
20260503225820 18 277 6.4 16.1 0.00 0.00 0.00 47 1018.2
20260503225721 18 239 8.0 16.1 0.00 0.00 0.00 46 1018.3
20260503225620 18 244 8.0 16.1 0.00 0.00 0.00 46 1018.2
20260503225521 18 274 8.0 16.1 0.00 0.00 0.00 44 1018.2
20260503225422 18 240 8.0 16.1 0.00 0.00 0.00 45 1018.3
20260503225320 18 254 6.4 16.1 0.00 0.00 0.00 45 1018.3
20260503225221 18 246 6.4 16.1 0.00 0.00 0.00 44 1018.4
20260503225115 18 250 6.4 16.1 0.00 0.00 0.00 48 1018.3
20260503225014 18 244 6.4 14.5 0.00 0.00 0.00 48 1018.3
20260503224912 18 228 6.4 14.5 0.00 0.00 0.00 50 1018.3
20260503224813 18 244 6.4 14.5 0.00 0.00 0.00 43 1018.3
20260503224714 18 267 6.4 14.5 0.00 0.00 0.00 43 1018.3
20260503224606 18 259 4.8 12.9 0.00 0.00 0.00 46 1018.4
20260503224537 18 220 4.8 11.3 0.00 0.00 0.00 46 1018.4
20260503224528 18 247 4.8 12.9 0.00 0.00 0.00 48 1018.4
20260503224306 18 253 6.4 17.7 0.00 0.00 0.00 46 1018.4
20260503224207 18 236 6.4 17.7 0.00 0.00 0.00 46 1018.4
20260503224107 18 236 6.4 17.7 0.00 0.00 0.00 45 1018.4
20260503224036 18 233 6.4 17.7 0.00 0.00 0.00 46 1018.4
20260503224029 18 263 6.4 17.7 0.00 0.00 0.00 44 1018.5
20260503223806 18 244 6.4 17.7 0.00 0.00 0.00 46 1018.5
20260503223704 18 205 6.4 17.7 0.00 0.00 0.00 49 1018.5
20260503223644 18 248 4.8 17.7 0.00 0.00 0.00 45 1018.4
20260503223639 18 240 4.8 16.1 0.00 0.00 0.00 47 1018.5
20260503223634 18 261 3.2 16.1 0.00 0.00 0.00 45 1018.4
20260503223620 18 215 6.4 17.7 0.00 0.00 0.00 47 1018.5
20260503223602 18 239 6.4 17.7 0.00 0.00 0.00 45 1018.5
20260503223104 18 205 3.2 14.5 0.00 0.00 0.00 45 1018.4
20260503223004 18 158 3.2 12.9 0.00 0.00 0.00 46 1018.3
20260503222905 18 148 3.2 11.3 0.00 0.00 0.00 46 1018.4
20260503222804 18 218 3.2 11.3 0.00 0.00 0.00 51 1018.4
20260503222704 18 167 4.8 12.9 0.00 0.00 0.00 49 1018.5
20260503222604 18 191 4.8 14.5 0.00 0.00 0.00 49 1018.4
20260503222504 18 218 4.8 14.5 0.00 0.00 0.00 48 1018.4
20260503222402 18 137 4.8 14.5 0.00 0.00 0.00 48 1018.4
20260503222329 18 154 6.4 14.5 0.00 0.00 0.00 48 1018.4
20260503222320 18 154 4.8 14.5 0.00 0.00 0.00 51 1018.4
20260503222100 18 221 6.4 14.5 0.00 0.00 0.00 46 1018.4
20260503221957 18 147 6.4 14.5 0.00 0.00 0.00 48 1018.4
20260503221858 18 163 4.8 14.5 0.00 0.00 0.00 47 1018.5
20260503221758 18 207 4.8 14.5 0.00 0.00 0.00 49 1018.5
20260503221659 18 210 4.8 14.5 0.00 0.00 0.00 46 1018.4
20260503221557 18 282 4.8 14.5 0.00 0.00 0.00 45 1018.5
20260503221458 18 263 4.8 14.5 0.00 0.00 0.00 47 1018.6
20260503221358 18 248 4.8 14.5 0.00 0.00 0.00 48 1018.5
20260503221259 18 246 4.8 14.5 0.00 0.00 0.00 45 1018.6
20260503221158 18 275 4.8 14.5 0.00 0.00 0.00 46 1018.6
20260503221134 18 290 4.8 14.5 0.00 0.00 0.00 48 1018.6
20260503221118 18 257 4.8 14.5 0.00 0.00 0.00 47 1018.5
20260503220859 18 261 4.8 14.5 0.00 0.00 0.00 49 1018.6
20260503220758 18 232 4.8 14.5 0.00 0.00 0.00 47 1018.6
20260503220659 18 232 4.8 14.5 0.00 0.00 0.00 43 1018.6
20260503220559 18 231 4.8 14.5 0.00 0.00 0.00 45 1018.6
20260503220459 18 240 4.8 14.5 0.00 0.00 0.00 47 1018.6
20260503220358 18 241 4.8 14.5 0.00 0.00 0.00 47 1018.5
20260503220257 18 209 4.8 14.5 0.00 0.00 0.00 45 1018.6
20260503220159 18 213 4.8 14.5 0.00 0.00 0.00 48 1018.6
20260503220059 18 262 4.8 14.5 0.00 0.00 0.00 48 1018.6
20260503215959 18 244 4.8 11.3 0.00 0.00 0.00 48 1018.6
20260503215929 18 246 3.2 11.3 0.00 0.00 0.00 45 1018.7
20260503215919 18 111 4.8 11.3 0.00 0.00 0.00 47 1018.6
20260503215659 18 213 4.8 9.7 0.00 0.00 0.00 45 1018.6
20260503215558 18 229 4.8 17.7 0.00 0.00 0.00 46 1018.6
20260503215457 18 202 6.4 20.9 0.00 0.00 0.00 44 1018.6
20260503215358 18 168 6.4 20.9 0.00 0.00 0.00 45 1018.7
20260503215330 18 186 8.0 20.9 0.00 0.00 0.00 45 1018.6
20260503215319 18 190 6.4 20.9 0.00 0.00 0.00 45 1018.6
20260503215058 18 196 8.0 20.9 0.00 0.00 0.00 46 1018.7
20260503215000 18 193 8.0 20.9 0.00 0.00 0.00 44 1018.7
20260503214854 18 192 8.0 20.9 0.00 0.00 0.00 46 1018.7
20260503214827 18 240 8.0 20.9 0.00 0.00 0.00 45 1018.7
20260503214817 18 215 8.0 20.9 0.00 0.00 0.00 46 1018.7
20260503214554 18 268 8.0 20.9 0.00 0.00 0.00 44 1018.8
20260503214454 18 275 6.4 19.3 0.00 0.00 0.00 43 1018.8
20260503214424 18 311 6.4 16.1 0.00 0.00 0.00 42 1018.8
20260503214414 18 290 6.4 16.1 0.00 0.00 0.00 42 1018.7
20260503214156 18 314 6.4 16.1 0.00 0.00 0.00 44 1018.8
20260503214054 18 252 6.4 14.5 0.00 0.00 0.00 45 1018.8
20260503214037 18 235 8.0 17.7 0.00 0.00 0.00 47 1018.9
20260503214032 18 239 8.0 19.3 0.00 0.00 0.00 43 1019.0
20260503214027 18 246 8.0 17.7 0.00 0.00 0.00 44 1018.8
20260503214014 18 248 6.4 17.7 0.00 0.00 0.00 43 1018.8
20260503213957 18 246 8.0 17.7 0.00 0.00 0.00 44 1018.8
20260503213718 18 303 8.0 17.7 0.00 0.00 0.00 43 1018.9
20260503213713 18 269 8.0 17.7 0.00 0.00 0.00 42 1018.9
20260503213707 18 252 8.0 19.3 0.00 0.00 0.00 44 1018.9
20260503213657 18 242 8.0 17.7 0.00 0.00 0.00 44 1018.8
20260503213637 18 270 8.0 17.7 0.00 0.00 0.00 45 1018.8
20260503213520 18 239 8.0 19.3 0.00 0.00 0.00 42 1018.9
20260503213514 18 252 8.0 19.3 0.00 0.00 0.00 43 1019.0
20260503213503 18 236 8.0 17.7 0.00 0.00 0.00 45 1018.9
20260503213444 18 271 8.0 17.7 0.00 0.00 0.00 45 1018.9
20260503213146 18 295 8.0 17.7 0.00 0.00 0.00 44 1018.9
20260503213009 18 302 8.0 17.7 0.00 0.00 0.00 44 1018.9
20260503212355 18 287 8.0 19.3 0.00 0.00 0.00 43 1018.9
20260503212300 18 240 8.0 19.3 0.00 0.00 0.00 49 1018.9
20260503212247 18 244 8.0 19.3 0.00 0.00 0.00 46 1018.9
20260503212242 18 253 8.0 19.3 0.00 0.00 0.00 43 1019.0
20260503212223 18 290 8.0 19.3 0.00 0.00 0.00 44 1019.0
20260503211924 18 255 9.7 19.3 0.00 0.00 0.00 44 1019.1
20260503211919 18 174 9.7 19.3 0.00 0.00 0.00 43 1019.1
20260503211908 18 245 8.0 19.3 0.00 0.00 0.00 44 1019.0
20260503211848 18 187 8.0 19.3 0.00 0.00 0.00 44 1019.0
20260503211723 18 198 8.0 19.3 0.00 0.00 0.00 44 1019.0
20260503211346 18 247 9.7 19.3 0.00 0.00 0.00 45 1019.1
20260503211317 18 259 11.3 19.3 0.00 0.00 0.00 42 1019.1
20260503211306 18 275 11.3 19.3 0.00 0.00 0.00 44 1019.1
20260503211046 18 266 11.3 19.3 0.00 0.00 0.00 42 1019.2
20260503210945 18 282 12.9 19.3 0.00 0.00 0.00 42 1019.2
20260503210916 18 304 12.9 19.3 0.00 0.00 0.00 43 1019.3
20260503210906 18 270 11.3 19.3 0.00 0.00 0.00 43 1019.3
20260503210714 18 246 11.3 19.3 0.00 0.00 0.00 42 1019.3
20260503210705 18 251 11.3 19.3 0.00 0.00 0.00 44 1019.3
20260503210444 18 244 9.7 19.3 0.00 0.00 0.00 44 1019.4
20260503210343 18 256 9.7 19.3 0.00 0.00 0.00 47 1019.4
20260503210243 18 238 9.7 19.3 0.00 0.00 0.00 44 1019.4
20260503210141 18 251 8.0 19.3 0.00 0.00 0.00 43 1019.4
20260503210056 18 241 6.4 16.1 0.00 0.00 0.00 43 1019.4
20260503210052 18 202 8.0 16.1 0.00 0.00 0.00 47 1019.4
20260503210041 18 292 8.0 19.3 0.00 0.00 0.00 42 1019.4
20260503210020 18 249 6.4 16.1 0.00 0.00 0.00 42 1019.4
20260503205858 18 294 6.4 16.1 0.00 0.00 0.00 44 1019.4
20260503205714 18 242 8.0 16.1 0.00 0.00 0.00 47 1019.4
20260503205354 18 229 6.4 16.1 0.00 0.00 0.00 42 1019.4
20260503205343 18 212 8.0 16.1 0.00 0.00 0.00 48 1019.5
20260503205121 18 247 6.4 16.1 0.00 0.00 0.00 40 1019.4
20260503205020 18 227 6.4 16.1 0.00 0.00 0.00 43 1019.5
20260503204949 18 227 4.8 16.1 0.00 0.00 0.00 41 1019.5
20260503204939 18 246 6.4 16.1 0.00 0.00 0.00 44 1019.5
20260503204746 18 186 4.8 16.1 0.00 0.00 0.00 44 1019.5
20260503204735 18 180 6.4 16.1 0.00 0.00 0.00 41 1019.5
20260503204544 18 213 6.4 16.1 0.00 0.00 0.00 43 1019.5
20260503204533 18 249 6.4 16.1 0.00 0.00 0.00 44 1019.5
20260503204307 18 271 8.0 22.5 0.00 0.00 0.00 44 1019.6
20260503204205 18 186 8.0 22.5 0.00 0.00 0.00 46 1019.5
20260503204107 18 210 9.7 22.5 0.00 0.00 0.00 47 1019.5
20260503204007 18 229 9.7 22.5 0.00 0.00 0.00 52 1019.6
20260503203907 18 191 11.3 22.5 0.00 0.00 0.00 44 1019.6
20260503203804 18 252 11.3 22.5 0.00 0.00 0.00 43 1019.6
20260503203704 18 279 11.3 22.5 0.00 0.00 0.00 42 1019.6
20260503203604 18 314 11.3 22.5 0.00 0.00 0.00 41 1019.6
20260503203504 18 299 9.7 22.5 0.00 0.00 0.00 43 1019.7
20260503203404 18 251 9.7 22.5 0.00 0.00 0.00 42 1019.7
20260503203337 18 252 8.0 19.3 0.00 0.00 0.00 42 1019.7
20260503203326 18 254 8.0 20.9 0.00 0.00 0.00 43 1019.7
20260503203104 18 262 6.4 19.3 0.00 0.00 0.00 43 1019.6
20260503203005 18 245 6.4 19.3 0.00 0.00 0.00 41 1019.7
20260503202905 18 235 6.4 14.5 0.00 0.00 0.00 42 1019.7
20260503202807 18 288 4.8 14.5 0.00 0.00 0.00 45 1019.7
20260503202800 18 162 4.8 11.3 0.00 0.00 0.00 50 1019.7
20260503202741 18 157 4.8 12.9 0.00 0.00 0.00 45 1019.7
20260503202618 18 232 4.8 11.3 0.00 0.00 0.00 49 1019.7
20260503202358 18 120 4.8 11.3 0.00 0.00 0.00 43 1019.7
20260503202256 18 180 4.8 12.9 0.00 0.00 0.00 43 1019.8
20260503202154 18 175 6.4 12.9 0.00 0.00 0.00 49 1019.7
20260503202052 18 184 6.4 14.5 0.00 0.00 0.00 48 1019.8
20260503201953 18 239 6.4 16.1 0.00 0.00 0.00 56 1019.8
20260503201853 18 227 8.0 17.7 0.00 0.00 0.00 47 1019.8
20260503201750 17 192 8.0 17.7 0.00 0.00 0.00 51 1019.7
20260503201649 17 192 8.0 17.7 0.00 0.00 0.00 46 1019.8
20260503201550 17 251 8.0 17.7 0.00 0.00 0.00 41 1019.8
20260503201503 17 309 8.0 17.7 0.00 0.00 0.00 42 1019.9
20260503201453 17 251 8.0 17.7 0.00 0.00 0.00 40 1019.9
20260503201447 17 278 8.0 17.7 0.00 0.00 0.00 45 1019.9
20260503201428 17 261 8.0 17.7 0.00 0.00 0.00 47 1019.9
20260503201026 17 275 8.0 20.9 0.00 0.00 0.00 44 1019.9
20260503201015 17 252 8.0 19.3 0.00 0.00 0.00 44 1019.9
20260503200750 17 261 8.0 20.9 0.00 0.00 0.00 44 1020.0
20260503200651 17 257 8.0 20.9 0.00 0.00 0.00 46 1020.1
20260503200550 17 242 8.0 20.9 0.00 0.00 0.00 41 1020.1
20260503200450 18 213 6.4 20.9 0.00 0.00 0.00 45 1020.1
20260503200414 18 241 6.4 20.9 0.00 0.00 0.00 45 1020.1
20260503200405 18 213 6.4 20.9 0.00 0.00 0.00 45 1020.1
20260503200143 18 250 6.4 20.9 0.00 0.00 0.00 50 1020.1
20260503195943 17 281 6.4 20.9 0.00 0.00 0.00 46 1020.2
20260503195838 17 242 4.8 16.1 0.00 0.00 0.00 41 1020.1
20260503195809 18 231 4.8 16.1 0.00 0.00 0.00 49 1020.2
20260503195800 18 272 4.8 16.1 0.00 0.00 0.00 45 1020.2
20260503195538 17 157 4.8 16.1 0.00 0.00 0.00 45 1020.3
20260503195438 17 194 4.8 16.1 0.00 0.00 0.00 43 1020.4
20260503195339 17 191 4.8 16.1 0.00 0.00 0.00 45 1020.3
20260503195249 17 268 6.4 16.1 0.00 0.00 0.00 43 1020.4
20260503195240 17 171 4.8 16.1 0.00 0.00 0.00 47 1020.3
20260503195219 17 132 4.8 16.1 0.00 0.00 0.00 45 1020.3
20260503195058 17 270 6.4 16.1 0.00 0.00 0.00 44 1020.3
20260503194837 17 15 8.0 19.3 0.00 0.00 0.00 42 1020.4
20260503194805 17 184 8.0 19.3 0.00 0.00 0.00 45 1020.4
20260503194755 17 355 8.0 19.3 0.00 0.00 0.00 46 1020.4
20260503194534 17 242 8.0 19.3 0.00 0.00 0.00 50 1020.7
20260503194435 17 297 8.0 19.3 0.00 0.00 0.00 52 1020.4
20260503194335 17 286 9.7 19.3 0.00 0.00 0.00 45 1020.6
20260503194234 17 313 9.7 19.3 0.00 0.00 0.00 44 1020.6
20260503194128 18 281 8.0 19.3 0.00 0.00 0.00 48 1020.7
20260503194028 17 275 8.0 19.3 0.00 0.00 0.00 48 1020.6
20260503193929 17 266 6.4 19.3 0.00 0.00 0.00 51 1020.7
20260503193904 17 222 6.4 16.1 0.00 0.00 0.00 44 1020.7
20260503193853 17 223 6.4 16.1 0.00 0.00 0.00 50 1020.7
20260503193656 17 195 4.8 12.9 0.00 0.00 0.00 49 1020.7
20260503193645 17 240 4.8 14.5 0.00 0.00 0.00 42 1020.7
20260503193624 17 254 4.8 14.5 0.00 0.00 0.00 44 1020.7
20260503193447 17 279 4.8 14.5 0.00 0.00 0.00 52 1020.7
20260503193419 17 236 4.8 14.5 0.00 0.00 0.00 52 1020.7
20260503193251 17 227 4.8 12.9 0.00 0.00 0.00 47 1020.7
20260503193011 17 215 6.4 12.9 0.00 0.00 0.00 44 1020.8
20260503192912 17 220 6.4 16.1 0.00 0.00 0.00 45 1020.9
20260503192811 17 242 6.4 16.1 0.00 0.00 0.00 43 1020.9
20260503192713 17 261 6.4 16.1 0.00 0.00 0.00 51 1020.9
20260503192606 17 247 6.4 17.7 0.00 0.00 0.00 45 1020.8
20260503192505 17 178 8.0 17.7 0.00 0.00 0.00 43 1020.8
20260503192407 18 229 8.0 17.7 0.00 0.00 0.00 44 1020.9
20260503192306 18 184 8.0 17.7 0.00 0.00 0.00 52 1020.9
20260503192206 17 239 8.0 17.7 0.00 0.00 0.00 54 1020.9
20260503192129 17 259 6.4 17.7 0.00 0.00 0.00 50 1021.0
20260503192118 17 221 6.4 17.7 0.00 0.00 0.00 47 1020.9
20260503191856 17 240 6.4 17.7 0.00 0.00 0.00 47 1020.9
20260503191755 17 221 6.4 17.7 0.00 0.00 0.00 49 1021.0
20260503191656 17 240 6.4 17.7 0.00 0.00 0.00 51 1021.0
20260503191621 17 242 4.8 16.1 0.00 0.00 0.00 45 1021.0
20260503191611 17 182 6.4 16.1 0.00 0.00 0.00 50 1021.0
20260503191421 17 113 4.8 14.5 0.00 0.00 0.00 46 1021.0
20260503191411 17 306 4.8 16.1 0.00 0.00 0.00 47 1021.0
20260503191150 17 260 4.8 14.5 0.00 0.00 0.00 46 1021.0
20260503191047 17 311 4.8 14.5 0.00 0.00 0.00 42 1021.1
20260503190945 17 206 4.8 14.5 0.00 0.00 0.00 48 1021.0
20260503190844 17 223 4.8 14.5 0.00 0.00 0.00 42 1021.1
20260503190819 17 221 4.8 14.5 0.00 0.00 0.00 47 1021.1
20260503190809 17 206 4.8 14.5 0.00 0.00 0.00 47 1021.2
20260503190536 17 241 4.8 14.5 0.00 0.00 0.00 48 1021.1
20260503190434 17 244 4.8 14.5 0.00 0.00 0.00 54 1021.2
20260503190403 17 211 6.4 17.7 0.00 0.00 0.00 49 1021.2
20260503190353 17 192 4.8 17.7 0.00 0.00 0.00 48 1021.2
20260503190134 17 9 6.4 17.7 0.00 0.00 0.00 55 1021.2
20260503190028 16 246 6.4 17.7 0.00 0.00 0.00 41 1021.2
20260503185927 16 242 8.0 17.7 0.00 0.00 0.00 45 1021.3
20260503185829 16 280 8.0 17.7 0.00 0.00 0.00 49 1021.2
20260503185728 16 281 9.7 19.3 0.00 0.00 0.00 45 1021.2
20260503185628 17 267 11.3 20.9 0.00 0.00 0.00 48 1021.3
20260503185524 17 236 11.3 20.9 0.00 0.00 0.00 45 1021.3
20260503185423 17 252 9.7 20.9 0.00 0.00 0.00 51 1021.3
20260503185323 17 221 9.7 20.9 0.00 0.00 0.00 51 1021.3
20260503185224 17 322 9.7 20.9 0.00 0.00 0.00 46 1021.3
20260503185122 17 262 8.0 20.9 0.00 0.00 0.00 49 1021.3
20260503185011 17 251 6.4 20.9 0.00 0.00 0.00 50 1021.3
20260503184913 17 246 6.4 20.9 0.00 0.00 0.00 47 1021.3
20260503184813 17 278 6.4 20.9 0.00 0.00 0.00 46 1021.3
20260503184712 17 246 4.8 20.9 0.00 0.00 0.00 46 1021.3
20260503184612 17 233 3.2 11.3 0.00 0.00 0.00 46 1021.3
20260503184509 17 242 4.8 9.7 0.00 0.00 0.00 43 1021.3
20260503184437 17 202 4.8 12.9 0.00 0.00 0.00 45 1021.3
20260503184427 17 211 4.8 11.3 0.00 0.00 0.00 46 1021.3
20260503184207 17 196 6.4 12.9 0.00 0.00 0.00 50 1021.3
20260503184107 17 199 6.4 12.9 0.00 0.00 0.00 50 1021.3
20260503183959 16 200 6.4 12.9 0.00 0.00 0.00 49 1021.4
20260503183900 16 264 6.4 12.9 0.00 0.00 0.00 42 1021.3
20260503183801 16 267 6.4 17.7 0.00 0.00 0.00 44 1021.3
20260503183701 16 252 8.0 17.7 0.00 0.00 0.00 46 1021.3
20260503183601 16 266 8.0 17.7 0.00 0.00 0.00 42 1021.3
20260503183552 17 267 6.4 17.7 0.00 0.00 0.00 49 1021.4
20260503183548 17 250 6.4 17.7 0.00 0.00 0.00 46 1021.4
20260503183528 17 265 8.0 17.7 0.00 0.00 0.00 49 1021.3
20260503183151 17 279 6.4 17.7 0.00 0.00 0.00 50 1021.4
20260503183050 17 250 4.8 17.7 0.00 0.00 0.00 51 1021.4
20260503182947 17 236 4.8 17.7 0.00 0.00 0.00 46 1021.5
20260503182916 16 196 4.8 11.3 0.00 0.00 0.00 53 1021.5
20260503182907 17 233 4.8 12.9 0.00 0.00 0.00 49 1021.4
20260503182643 16 136 3.2 11.3 0.00 0.00 0.00 47 1021.5
20260503182608 16 109 3.2 9.7 0.00 0.00 0.00 48 1021.5
20260503182600 16 132 3.2 11.3 0.00 0.00 0.00 48 1021.4
20260503182339 16 188 3.2 9.7 0.00 0.00 0.00 50 1021.5
20260503182239 16 201 3.2 9.7 0.00 0.00 0.00 49 1021.5
20260503182212 16 0 4.8 9.7 0.00 0.00 0.00 52 1021.5
20260503182201 16 0 3.2 9.7 0.00 0.00 0.00 54 1021.4
20260503182137 16 209 3.2 9.7 0.00 0.00 0.00 47 1021.4
20260503182026 16 0 4.8 9.7 0.00 0.00 0.00 52 1021.5
20260503182007 16 0 3.2 9.7 0.00 0.00 0.00 53 1021.5
20260503181629 16 0 4.8 9.7 0.00 0.00 0.00 46 1021.5
20260503181528 16 0 4.8 17.7 0.00 0.00 0.00 48 1021.5
20260503181433 16 0 8.0 17.7 0.00 0.00 0.00 48 1021.5
20260503181423 16 0 8.0 17.7 0.00 0.00 0.00 48 1021.5
20260503181417 16 0 8.0 17.7 0.00 0.00 0.00 52 1021.6
20260503181359 16 0 8.0 17.7 0.00 0.00 0.00 49 1021.6
20260503181234 16 0 8.0 17.7 0.00 0.00 0.00 53 1021.5
20260503181220 16 0 8.0 17.7 0.00 0.00 0.00 54 1021.5
20260503180938 16 0 8.0 17.7 0.00 0.00 0.00 49 1021.5
20260503180717 16 0 8.0 17.7 0.00 0.00 0.00 51 1021.5
20260503180617 16 250 8.0 17.7 0.00 0.00 0.00 50 1021.5
20260503180516 16 254 6.4 16.1 0.00 0.00 0.00 51 1021.5
20260503180405 16 248 6.4 16.1 0.00 0.00 0.00 53 1021.6
20260503180305 16 281 6.4 12.9 0.00 0.00 0.00 57 1021.6
20260503180207 16 187 6.4 12.9 0.00 0.00 0.00 55 1021.6
20260503180117 16 254 4.8 12.9 0.00 0.00 0.00 48 1021.6
20260503180107 16 238 4.8 12.9 0.00 0.00 0.00 50 1021.6
20260503180100 16 246 4.8 12.9 0.00 0.00 0.00 55 1021.6
20260503180042 16 271 4.8 12.9 0.00 0.00 0.00 49 1021.6
20260503175735 16 260 3.2 11.3 0.00 0.00 0.00 47 1021.7
20260503175723 16 241 3.2 12.9 0.00 0.00 0.00 53 1021.6
20260503175500 16 257 3.2 11.3 0.00 0.00 0.00 53 1021.7
20260503175355 16 238 3.2 9.7 0.00 0.00 0.00 53 1021.6
20260503175255 16 344 3.2 8.0 0.00 0.00 0.00 55 1021.7
20260503175154 16 200 3.2 8.0 0.00 0.00 0.00 54 1021.7
20260503175053 15 204 3.2 8.0 0.00 0.00 0.00 51 1021.7
20260503174954 15 140 3.2 8.0 0.00 0.00 0.00 55 1021.7
20260503174848 15 148 3.2 8.0 0.00 0.00 0.00 54 1021.7
20260503174749 15 134 3.2 8.0 0.00 0.00 0.00 46 1021.7
20260503174647 15 130 3.2 11.3 0.00 0.00 0.00 48 1021.8
20260503174546 15 134 3.2 12.9 0.00 0.00 0.00 45 1021.8
20260503174444 15 75 4.8 12.9 0.00 0.00 0.00 46 1021.8
20260503174407 16 250 4.8 12.9 0.00 0.00 0.00 48 1021.8
20260503174357 16 95 3.2 12.9 0.00 0.00 0.00 49 1021.8
20260503174139 16 252 4.8 12.9 0.00 0.00 0.00 46 1021.8
20260503174037 16 250 4.8 12.9 0.00 0.00 0.00 51 1021.9
20260503173938 16 238 4.8 12.9 0.00 0.00 0.00 52 1021.8
20260503173834 16 237 4.8 12.9 0.00 0.00 0.00 49 1021.8
20260503173732 16 278 3.2 12.9 0.00 0.00 0.00 46 1021.8
20260503173702 16 185 3.2 9.7 0.00 0.00 0.00 54 1021.9
20260503173653 16 275 3.2 12.9 0.00 0.00 0.00 46 1021.9
20260503173432 16 184 3.2 9.7 0.00 0.00 0.00 48 1021.8
20260503173321 16 198 3.2 9.7 0.00 0.00 0.00 48 1021.8
20260503173236 15 149 3.2 11.3 0.00 0.00 0.00 50 1021.9
20260503173225 16 167 3.2 9.7 0.00 0.00 0.00 49 1021.9
20260503173205 16 184 3.2 9.7 0.00 0.00 0.00 55 1021.9
20260503173044 15 266 3.2 11.3 0.00 0.00 0.00 56 1021.9
20260503172852 15 130 4.8 11.3 0.00 0.00 0.00 50 1022.0
20260503172847 15 123 4.8 11.3 0.00 0.00 0.00 46 1021.9
20260503172837 15 121 4.8 11.3 0.00 0.00 0.00 52 1021.9
20260503172816 15 121 4.8 11.3 0.00 0.00 0.00 50 1022.0
20260503172653 15 121 4.8 11.3 0.00 0.00 0.00 46 1021.9
20260503172313 15 240 4.8 11.3 0.00 0.00 0.00 47 1022.0
20260503172213 15 238 4.8 11.3 0.00 0.00 0.00 49 1022.0
20260503172111 15 206 4.8 11.3 0.00 0.00 0.00 52 1022.1
20260503172013 15 234 4.8 11.3 0.00 0.00 0.00 47 1022.0
20260503171910 15 300 4.8 11.3 0.00 0.00 0.00 47 1022.1
20260503171801 15 269 4.8 11.3 0.00 0.00 0.00 55 1022.1
20260503171702 15 317 3.2 9.7 0.00 0.00 0.00 54 1022.2
20260503171601 15 242 3.2 9.7 0.00 0.00 0.00 52 1022.1
20260503171502 15 109 3.2 9.7 0.00 0.00 0.00 52 1022.2
20260503171400 15 108 4.8 9.7 0.00 0.00 0.00 49 1022.1
20260503171257 15 0 4.8 9.7 0.00 0.00 0.00 49 1022.0
20260503171153 15 111 4.8 12.9 0.00 0.00 0.00 51 1022.1
20260503171055 15 98 3.2 12.9 0.00 0.00 0.00 51 1022.1
20260503170953 15 80 3.2 12.9 0.00 0.00 0.00 50 1022.1
20260503170855 15 273 3.2 12.9 0.00 0.00 0.00 49 1022.1
20260503170755 15 267 3.2 12.9 0.00 0.00 0.00 52 1022.1
20260503170653 15 261 4.8 12.9 0.00 0.00 0.00 54 1022.1
20260503170623 15 264 4.8 12.9 0.00 0.00 0.00 51 1022.1
20260503170612 15 256 4.8 12.9 0.00 0.00 0.00 51 1022.2
20260503170348 15 251 3.2 12.9 0.00 0.00 0.00 50 1022.2
20260503170309 15 244 3.2 11.3 0.00 0.00 0.00 53 1022.2
20260503170258 15 0 4.8 12.9 0.00 0.00 0.00 52 1022.3
20260503160116 12 92 3.2 11.3 0.00 0.00 0.00 52 1022.9
20260503150945 12 64 4.8 12.9 0.00 0.00 0.00 59 1023.2
20260503150843 12 96 3.2 9.7 0.00 0.00 0.00 57 1023.1
20260503150743 12 94 3.2 6.4 0.00 0.00 0.00 56 1023.2
20260503150658 12 112 3.2 6.4 0.00 0.00 0.00 57 1023.2
20260503150646 12 94 4.8 6.4 0.00 0.00 0.00 58 1023.1
20260503150641 12 112 3.2 6.4 0.00 0.00 0.00 56 1023.2
20260503150622 12 101 3.2 6.4 0.00 0.00 0.00 57 1023.2
20260503150244 12 77 3.2 6.4 0.00 0.00 0.00 55 1023.2
20260503150144 12 57 3.2 6.4 0.00 0.00 0.00 56 1023.2
20260503140235 10 86 3.2 11.3 0.00 0.00 0.00 82 1023.0
20260503140135 10 86 3.2 11.3 0.00 0.00 0.00 82 1023.0
20260503131410 8 178 1.6 6.4 0.00 0.00 0.00 95 1022.8
20260503131306 8 181 1.6 8.0 0.00 0.00 0.00 95 1022.9
20260503131155 8 179 1.6 8.0 0.00 0.00 0.00 95 1022.9
20260503131055 8 180 3.2 8.0 0.00 0.00 0.00 95 1022.9
20260503130956 8 0 3.2 8.0 0.00 0.00 0.00 95 1023.0
20260503130854 8 173 3.2 8.0 0.00 0.00 0.00 95 1022.9
20260503130756 8 173 3.2 8.0 0.00 0.00 0.00 95 1022.9
20260503130656 8 175 3.2 8.0 0.00 0.00 0.00 95 1022.9
20260503130553 8 174 1.6 8.0 0.00 0.00 0.00 95 1022.9
20260503130454 8 173 1.6 8.0 0.00 0.00 0.00 95 1022.9
20260503130352 8 173 1.6 8.0 0.00 0.00 0.00 96 1022.9
20260503130251 8 177 1.6 4.8 0.00 0.00 0.00 96 1022.9
20260503130244 8 202 1.6 4.8 0.00 0.00 0.00 96 1023.0
20260503130240 8 219 0.0 4.8 0.00 0.00 0.00 96 1022.9
20260503130221 8 175 1.6 4.8 0.00 0.00 0.00 96 1023.0
20260503120216 4 0 0.0 0.0 0.00 0.00 0.00 96 1022.7
20260503120113 4 0 0.0 0.0 0.00 0.00 0.00 96 1022.7
20260503110752 2 275 0.0 0.0 0.00 0.00 0.00 95 1021.9
20260503110650 2 275 0.0 0.0 0.00 0.00 0.00 95 1021.9
20260503110550 2 275 0.0 0.0 0.00 0.00 0.00 95 1021.9
20260503110452 2 275 0.0 0.0 0.00 0.00 0.00 95 1021.9
20260503110352 2 275 0.0 0.0 0.00 0.00 0.00 95 1021.9
20260503110249 2 275 0.0 0.0 0.00 0.00 0.00 95 1021.9
20260503110148 2 275 0.0 0.0 0.00 0.00 0.00 95 1021.8
20260503100242 3 275 0.0 1.6 0.00 0.00 0.00 95 1021.4
20260503100141 3 275 0.0 1.6 0.00 0.00 0.00 95 1021.3
20260503090314 4 276 0.0 3.2 0.00 0.00 0.00 95 1021.3
20260503090307 4 276 0.0 3.2 0.00 0.00 0.00 95 1021.3
20260503090302 4 276 0.0 3.2 0.00 0.00 0.00 95 1021.3
20260503090245 4 276 0.0 3.2 0.00 0.00 0.00 95 1021.2
20260503081533 3 315 0.0 0.0 0.00 0.00 0.00 95 1021.1
20260503081432 3 315 0.0 0.0 0.00 0.00 0.00 95 1021.1
20260503081330 3 315 0.0 0.0 0.00 0.00 0.00 95 1021.0
20260503081230 3 315 0.0 0.0 0.00 0.00 0.00 95 1021.1
20260503081223 3 315 0.0 0.0 0.00 0.00 0.00 95 1021.0
20260503081217 3 315 0.0 0.0 0.00 0.00 0.00 95 1021.1
20260503081202 3 315 0.0 0.0 0.00 0.00 0.00 95 1021.1
20260503080826 3 315 0.0 0.0 0.00 0.00 0.00 94 1021.1
20260503080728 3 315 0.0 0.0 0.00 0.00 0.00 94 1021.0
20260503080626 3 315 0.0 0.0 0.00 0.00 0.00 94 1021.1
20260503080528 3 315 0.0 0.0 0.00 0.00 0.00 94 1021.0
20260503080422 3 315 0.0 0.0 0.00 0.00 0.00 94 1020.9
20260503080320 3 315 0.0 0.0 0.00 0.00 0.00 94 1021.0
20260503080220 3 315 0.0 0.0 0.00 0.00 0.00 94 1021.0
20260503080118 3 315 0.0 0.0 0.00 0.00 0.00 94 1020.9
20260503072909 3 315 0.0 3.2 0.00 0.00 0.00 94 1021.1
20260503072810 3 317 0.0 1.6 0.00 0.00 0.00 94 1021.1
20260503072708 3 317 0.0 1.6 0.00 0.00 0.00 94 1021.1
20260503072610 3 317 0.0 1.6 0.00 0.00 0.00 94 1021.1
20260503072508 3 317 0.0 1.6 0.00 0.00 0.00 94 1021.1
20260503072409 3 317 0.0 1.6 0.00 0.00 0.00 94 1021.2
20260503072309 3 317 0.0 1.6 0.00 0.00 0.00 94 1021.1
20260503072208 3 317 0.0 1.6 0.00 0.00 0.00 94 1021.2
20260503072120 3 317 0.0 0.0 0.00 0.00 0.00 94 1021.2
20260503072109 3 317 0.0 1.6 0.00 0.00 0.00 94 1021.1
20260503072103 3 317 0.0 0.0 0.00 0.00 0.00 94 1021.1
20260503072046 3 317 0.0 1.6 0.00 0.00 0.00 94 1021.2
20260503071708 3 317 0.0 0.0 0.00 0.00 0.00 94 1021.1
20260503071609 3 317 0.0 0.0 0.00 0.00 0.00 94 1021.1
20260503071538 3 317 0.0 0.0 0.00 0.00 0.00 94 1021.0
20260503071528 3 317 0.0 0.0 0.00 0.00 0.00 94 1021.0
20260503071308 3 317 0.0 3.2 0.00 0.00 0.00 94 1021.0
20260503071210 3 317 0.0 3.2 0.00 0.00 0.00 94 1020.9
20260503071108 3 317 0.0 3.2 0.00 0.00 0.00 94 1021.0
20260503071009 3 317 0.0 3.2 0.00 0.00 0.00 94 1020.9
20260503070908 3 317 1.6 3.2 0.00 0.00 0.00 94 1020.9
20260503070809 3 317 1.6 3.2 0.00 0.00 0.00 94 1020.9
20260503070707 3 317 1.6 3.2 0.00 0.00 0.00 94 1021.0
20260503070608 3 317 1.6 3.2 0.00 0.00 0.00 94 1021.0
20260503070508 3 317 1.6 3.2 0.00 0.00 0.00 94 1021.0
20260503070410 3 317 1.6 3.2 0.00 0.00 0.00 94 1021.0
20260503070308 3 317 1.6 3.2 0.00 0.00 0.00 94 1021.0
20260503070209 3 317 1.6 3.2 0.00 0.00 0.00 94 1021.0
20260503070135 3 317 1.6 3.2 0.00 0.00 0.00 93 1021.0
20260503070126 3 317 1.6 3.2 0.00 0.00 0.00 94 1021.0
20260503060333 4 317 0.0 0.0 0.00 0.00 0.00 93 1020.8
20260503060231 4 317 0.0 0.0 0.00 0.00 0.00 93 1020.8
20260503060123 4 317 0.0 0.0 0.00 0.00 0.00 93 1020.8
20260503055122 4 317 0.0 0.0 0.00 0.00 0.00 93 1020.8
20260503055023 4 317 0.0 0.0 0.00 0.00 0.00 93 1020.8
20260503054923 4 317 0.0 0.0 0.00 0.00 0.00 93 1020.8
20260503054917 5 317 0.0 0.0 0.00 0.00 0.00 93 1020.9
20260503054912 4 317 0.0 0.0 0.00 0.00 0.00 93 1020.8
20260503054855 4 317 0.0 0.0 0.00 0.00 0.00 93 1020.7
20260503054718 5 317 0.0 0.0 0.00 0.00 0.00 93 1020.8
20260503054555 5 317 0.0 0.0 0.00 0.00 0.00 93 1020.8
20260503054434 5 317 0.0 0.0 0.00 0.00 0.00 93 1020.9
20260503054415 5 317 0.0 0.0 0.00 0.00 0.00 93 1020.9
20260503054304 5 317 0.0 0.0 0.00 0.00 0.00 93 1021.0
20260503054247 5 317 0.0 0.0 0.00 0.00 0.00 93 1020.9
20260503054127 5 317 0.0 0.0 0.00 0.00 0.00 93 1020.9
20260503054107 5 317 0.0 0.0 0.00 0.00 0.00 93 1021.0
20260503053831 5 317 0.0 0.0 0.00 0.00 0.00 93 1021.0
20260503053610 5 317 0.0 0.0 0.00 0.00 0.00 93 1021.0
20260503053508 5 317 0.0 0.0 0.00 0.00 0.00 93 1021.0
20260503053405 5 317 0.0 0.0 0.00 0.00 0.00 93 1021.0
20260503053303 5 317 0.0 0.0 0.00 0.00 0.00 93 1020.9
20260503053249 5 317 0.0 1.6 0.00 0.00 0.00 93 1020.9
20260503053243 5 317 0.0 1.6 0.00 0.00 0.00 93 1020.9
20260503053239 5 317 0.0 0.0 0.00 0.00 0.00 93 1021.0
20260503053234 5 317 0.0 1.6 0.00 0.00 0.00 92 1020.9
20260503053224 5 317 0.0 0.0 0.00 0.00 0.00 93 1020.9
20260503053204 5 317 0.0 0.0 0.00 0.00 0.00 93 1020.9
20260503053043 5 317 0.0 0.0 0.00 0.00 0.00 93 1020.9
20260503053028 5 317 0.0 0.0 0.00 0.00 0.00 93 1020.9
20260503052512 5 317 0.0 1.6 0.00 0.00 0.00 93 1020.9
20260503052250 5 317 0.0 1.6 0.00 0.00 0.00 93 1020.9
20260503052150 5 317 0.0 1.6 0.00 0.00 0.00 93 1020.9
20260503052049 5 317 0.0 1.6 0.00 0.00 0.00 92 1020.9
20260503052040 5 317 0.0 1.6 0.00 0.00 0.00 92 1020.9
20260503052035 5 317 0.0 1.6 0.00 0.00 0.00 92 1020.8
20260503052018 5 317 0.0 1.6 0.00 0.00 0.00 92 1020.9
20260503051643 5 317 0.0 0.0 0.00 0.00 0.00 92 1020.8
20260503051542 5 317 0.0 0.0 0.00 0.00 0.00 92 1020.8
20260503051508 5 317 0.0 1.6 0.00 0.00 0.00 92 1020.8
20260503051459 5 317 0.0 1.6 0.00 0.00 0.00 92 1020.8
20260503051236 5 317 0.0 1.6 0.00 0.00 0.00 92 1020.9
20260503051138 5 317 0.0 1.6 0.00 0.00 0.00 92 1020.8
20260503051034 5 317 0.0 1.6 0.00 0.00 0.00 92 1020.9
20260503050935 5 317 0.0 1.6 0.00 0.00 0.00 92 1020.9
20260503050903 5 317 0.0 1.6 0.00 0.00 0.00 92 1020.8
20260503050853 5 317 0.0 1.6 0.00 0.00 0.00 92 1020.8
20260503050634 5 317 0.0 1.6 0.00 0.00 0.00 92 1020.8
20260503050532 5 317 0.0 1.6 0.00 0.00 0.00 92 1020.8
20260503050432 5 317 0.0 0.0 0.00 0.00 0.00 92 1020.8
20260503050332 5 317 0.0 0.0 0.00 0.00 0.00 92 1020.8
20260503050328 5 317 0.0 1.6 0.00 0.00 0.00 92 1020.7
20260503050309 5 317 0.0 1.6 0.00 0.00 0.00 92 1020.8
20260503050149 5 317 0.0 1.6 0.00 0.00 0.00 92 1020.8
20260503045929 5 317 0.0 1.6 0.00 0.00 0.00 92 1020.7
20260503045827 5 317 0.0 1.6 0.00 0.00 0.00 92 1020.7
20260503045729 5 317 0.0 1.6 0.00 0.00 0.00 92 1020.7
20260503045652 5 317 0.0 1.6 0.00 0.00 0.00 92 1020.7
20260503045643 5 317 0.0 1.6 0.00 0.00 0.00 92 1020.7
20260503045424 5 317 0.0 1.6 0.00 0.00 0.00 92 1020.7
20260503045323 5 317 0.0 1.6 0.00 0.00 0.00 92 1020.6
20260503045223 5 317 0.0 1.6 0.00 0.00 0.00 92 1020.6
20260503045125 5 317 0.0 0.0 0.00 0.00 0.00 92 1020.7
20260503045121 5 317 0.0 0.0 0.00 0.00 0.00 92 1020.6
20260503045114 5 317 0.0 0.0 0.00 0.00 0.00 92 1020.6
20260503045059 5 317 0.0 0.0 0.00 0.00 0.00 92 1020.4
20260503044724 5 317 0.0 0.0 0.00 0.00 0.00 92 1020.6
20260503044625 5 317 0.0 0.0 0.00 0.00 0.00 92 1020.6
20260503044523 5 317 0.0 0.0 0.00 0.00 0.00 92 1020.6
20260503044423 5 317 0.0 0.0 0.00 0.00 0.00 92 1020.4
20260503044323 5 317 0.0 0.0 0.00 0.00 0.00 92 1020.3
20260503044253 5 317 0.0 0.0 0.00 0.00 0.00 92 1020.4
20260503044242 5 317 0.0 0.0 0.00 0.00 0.00 92 1020.4
20260503044024 5 317 0.0 0.0 0.00 0.00 0.00 92 1020.3
20260503043953 5 317 0.0 1.6 0.00 0.00 0.00 92 1020.4
20260503043944 5 317 0.0 0.0 0.00 0.00 0.00 92 1020.3
20260503043717 5 317 0.0 1.6 0.00 0.00 0.00 92 1020.3
20260503043613 5 317 1.6 3.2 0.00 0.00 0.00 91 1020.4
20260503043512 5 317 1.6 3.2 0.00 0.00 0.00 91 1020.3
20260503043435 5 317 1.6 3.2 0.00 0.00 0.00 91 1020.3
20260503043427 5 317 1.6 3.2 0.00 0.00 0.00 91 1020.3
20260503043208 5 317 1.6 3.2 0.00 0.00 0.00 91 1020.3
20260503043134 5 317 1.6 3.2 0.00 0.00 0.00 92 1020.3
20260503043126 5 317 1.6 3.2 0.00 0.00 0.00 92 1020.3
20260503042901 5 317 1.6 3.2 0.00 0.00 0.00 92 1020.3
20260503042759 5 317 1.6 3.2 0.00 0.00 0.00 92 1020.3
20260503042659 6 317 1.6 3.2 0.00 0.00 0.00 91 1020.3
20260503042558 6 317 0.0 3.2 0.00 0.00 0.00 91 1020.2
20260503042456 6 317 0.0 1.6 0.00 0.00 0.00 91 1020.3
20260503042449 6 317 0.0 1.6 0.00 0.00 0.00 91 1020.2
20260503042443 6 317 0.0 0.0 0.00 0.00 0.00 91 1020.3
20260503042428 6 317 0.0 1.6 0.00 0.00 0.00 91 1020.2
20260503042120 6 317 0.0 0.0 0.00 0.00 0.00 91 1020.3
20260503042111 6 317 0.0 0.0 0.00 0.00 0.00 91 1020.3